Weather History for Wahoo, NE

Change the Weather History Date:

Monday, August 18, 2014

  Actual Average Record
Temperature  
Mean Temperature 74 °F -  
Max Temperature 88 °F 87 °F 104 °F (1983)
Min Temperature 61 °F 63 °F 42 °F (1985)
Cooling Degree Days 10    
Growing Degree Days 24 (Base 50)    
Moisture  
Dew Point 63 °F    
Average Humidity 67    
Maximum Humidity 91    
Minimum Humidity 43    
Precipitation  
Precipitation 0.11 in - - ()
Sea Level Pressure  
Sea Level Pressure 29.85 in    
Wind  
Wind Speed 7 mph (WSW)    
Max Wind Speed 29 mph    
Max Gust Speed 48 mph    
Visibility 10 miles    
Events Rain    
Averages and records for this station are not official NWS values.
T = Trace of Precipitation, MM = Missing Value Source: NWS Daily Summary

Daily Weather History Graph

Daily Weather History Graph

Search for Another Location

Airport:

Trip Planner

Search our weather history database for the weather conditions in past years. The results will help you decide how hot, cold, wet, or windy it might be!

Date:

Astronomy

Aug. 18, 2014 Rise Set
Actual Time 6:38 AM CDT 8:20 PM CDT
Civil Twilight 6:09 AM CDT 8:50 PM CDT
Nautical Twilight 5:33 AM CDT 9:25 PM CDT
Astronomical Twilight 4:55 AM CDT 10:03 PM CDT
Moon 12:46 AM CDT (8/18) 3:26 PM CDT (8/18)
Length of Visible Light 14h 40m
Length of Day
13h 42m
Last Quarter, 38% of the Moon is Illuminated
Aug 18
Last Quarter
Aug 25
New
Sep 2
First Quarter
Sep 8
Full
Sep 15
Last Quarter

Hourly Weather History & Observations

Time (CDT) Temp. Heat Index Dew Point Humidity Pressure Visibility Wind Dir Wind Speed Gust Speed Precip Events Conditions
12:15 AM 68.0 °F - 62.4 °F 82% 30.00 in 10.0 mi SW 11.5 mph 18.4 mph N/A Rain Light Rain
12:35 AM 67.1 °F - 62.6 °F 85% 29.99 in 10.0 mi SW 16.1 mph 24.2 mph 0.03 in Rain Rain
12:55 AM 67.1 °F - 62.1 °F 84% 29.98 in 10.0 mi SW 12.7 mph 18.4 mph 0.07 in Rain Rain
1:15 AM 67.1 °F - 61.7 °F 83% 29.87 in 10.0 mi SSE 28.8 mph 33.4 mph 0.04 in Rain Light Rain
1:35 AM 69.8 °F - 59.9 °F 71% 29.77 in 10.0 mi South 24.2 mph 48.3 mph 0.04 in Rain Light Rain
1:55 AM 71.8 °F - 57.9 °F 62% 29.82 in 10.0 mi West 3.5 mph - 0.04 in   Clear
2:15 AM 71.4 °F - 58.1 °F 63% 29.84 in 10.0 mi Calm Calm - N/A   Clear
2:35 AM 69.8 °F - 58.6 °F 68% 29.84 in 10.0 mi SE 11.5 mph - N/A   Clear
2:55 AM 67.6 °F - 60.1 °F 77% 29.85 in 10.0 mi South 5.8 mph - N/A   Clear
3:15 AM 66.9 °F - 60.8 °F 81% 29.85 in 10.0 mi SW 5.8 mph - N/A   Clear
3:35 AM 66.6 °F - 61.2 °F 83% 29.87 in 10.0 mi West 10.4 mph 16.1 mph N/A   Clear
4:15 AM 66.9 °F - 60.1 °F 79% 29.86 in 10.0 mi NW 8.1 mph - N/A   Clear
4:35 AM 67.1 °F - 59.2 °F 76% 29.87 in 10.0 mi NW 4.6 mph - N/A   Clear
4:55 AM 64.8 °F - 59.4 °F 83% 29.88 in 10.0 mi Calm Calm - N/A   Clear
5:15 AM 63.1 °F - 59.9 °F 89% 29.89 in 10.0 mi Calm Calm - N/A   Clear
5:35 AM 63.7 °F - 59.9 °F 87% 29.88 in 10.0 mi Calm Calm - N/A   Clear
5:55 AM 62.6 °F - 59.0 °F 88% 29.88 in 10.0 mi WNW 4.6 mph - N/A   Clear
6:15 AM 62.6 °F - 59.2 °F 89% 29.88 in 10.0 mi Calm Calm - N/A   Clear
6:35 AM 61.5 °F - 58.3 °F 89% 29.89 in 10.0 mi SSW 3.5 mph - N/A   Clear
6:55 AM 61.7 °F - 59.0 °F 91% 29.89 in 10.0 mi SSW 3.5 mph - N/A   Clear
7:15 AM 62.2 °F - 59.0 °F 89% 29.88 in 10.0 mi South 4.6 mph - N/A   Clear
7:35 AM 63.7 °F - 60.1 °F 88% 29.88 in 10.0 mi SSW 3.5 mph - N/A   Clear
7:55 AM 66.2 °F - 61.3 °F 84% 29.89 in 10.0 mi SSW 3.5 mph - N/A   Clear
8:15 AM 67.3 °F - 61.5 °F 82% 29.89 in 10.0 mi South 3.5 mph - N/A   Clear
8:35 AM 69.4 °F - 60.8 °F 74% 29.90 in 10.0 mi Calm Calm - N/A   Clear
8:55 AM 70.5 °F - 61.3 °F 73% 29.90 in 10.0 mi Calm Calm - N/A   Clear
9:15 AM 72.0 °F - 61.7 °F 70% 29.90 in 10.0 mi SSW 3.5 mph - N/A   Clear
9:35 AM 74.3 °F - 61.9 °F 65% 29.90 in 10.0 mi Calm Calm - N/A   Clear
9:55 AM 75.7 °F - 62.4 °F 63% 29.90 in 10.0 mi SW 3.5 mph - N/A   Clear
10:15 AM 77.5 °F - 62.6 °F 60% 29.90 in 10.0 mi SW 4.6 mph - N/A   Clear
10:35 AM 78.6 °F - 62.6 °F 58% 29.90 in 10.0 mi SW 4.6 mph - N/A   Clear
10:55 AM 79.7 °F - 61.9 °F 54% 29.90 in 10.0 mi West 5.8 mph - N/A   Clear
11:15 AM 80.6 °F 81.5 °F 61.0 °F 51% 29.90 in 10.0 mi Calm Calm - N/A   Clear
11:35 AM 81.7 °F 82.2 °F 60.4 °F 48% 29.90 in 10.0 mi WNW 4.6 mph - N/A   Clear
11:55 AM 81.9 °F 82.2 °F 60.1 °F 47% 29.88 in 10.0 mi WSW 5.8 mph - N/A   Clear
12:15 PM 82.6 °F 82.9 °F 60.4 °F 47% 29.89 in 10.0 mi West 4.6 mph - N/A   Clear
12:35 PM 82.6 °F 82.9 °F 60.4 °F 47% 29.88 in 10.0 mi West 5.8 mph - N/A   Clear
12:55 PM 82.9 °F 83.3 °F 60.8 °F 47% 29.87 in 10.0 mi Calm Calm - N/A   Clear
1:15 PM 83.7 °F 84.1 °F 61.5 °F 47% 29.86 in 10.0 mi WSW 6.9 mph - N/A   Clear
1:35 PM 84.0 °F 84.4 °F 61.3 °F 46% 29.86 in 10.0 mi WSW 4.6 mph - N/A   Clear
1:55 PM 84.9 °F 85.2 °F 61.7 °F 45% 29.85 in 10.0 mi Calm Calm - N/A   Clear
2:15 PM 85.5 °F 86.1 °F 62.4 °F 46% 29.85 in 10.0 mi WSW 4.6 mph - N/A   Clear
2:35 PM 85.6 °F 86.1 °F 62.1 °F 45% 29.84 in 10.0 mi SW 3.5 mph - N/A   Clear
2:55 PM 86.5 °F 87.3 °F 62.6 °F 45% 29.84 in 10.0 mi WNW 3.5 mph - N/A   Clear
3:15 PM 86.9 °F 88.1 °F 63.7 °F 46% 29.83 in 10.0 mi SW 4.6 mph - N/A   Clear
3:35 PM 87.1 °F 87.8 °F 63.0 °F 44% 29.83 in 10.0 mi Calm Calm - N/A   Clear
3:55 PM 87.4 °F 88.2 °F 63.1 °F 44% 29.83 in 10.0 mi Calm Calm - N/A   Clear
4:15 PM 88.3 °F 89.2 °F 63.5 °F 43% 29.83 in 10.0 mi Calm Calm - N/A   Clear
4:35 PM 87.8 °F 88.8 °F 63.3 °F 44% 29.83 in 10.0 mi West 4.6 mph - N/A   Clear
4:55 PM 88.0 °F 89.3 °F 64.4 °F 45% 29.82 in 10.0 mi WSW 3.5 mph - N/A   Clear
5:15 PM 87.8 °F 89.1 °F 63.9 °F 45% 29.82 in 10.0 mi WNW 3.5 mph - N/A   Clear
5:35 PM 87.6 °F 90.1 °F 66.2 °F 49% 29.81 in 10.0 mi West 4.6 mph - N/A   Clear
5:55 PM 87.1 °F 88.9 °F 65.1 °F 48% 29.80 in 10.0 mi West 3.5 mph - N/A   Clear
6:15 PM 86.9 °F 89.3 °F 66.0 °F 50% 29.79 in 10.0 mi West 3.5 mph - N/A   Clear
6:35 PM 85.6 °F 89.1 °F 68.4 °F 56% 29.79 in 10.0 mi West 3.5 mph - N/A   Clear
6:55 PM 84.0 °F 88.1 °F 69.8 °F 62% 29.79 in 10.0 mi WNW 3.5 mph - N/A   Clear
7:15 PM 84.2 °F 88.4 °F 69.8 °F 62% 29.79 in 10.0 mi West 3.5 mph - N/A   Clear
7:35 PM 82.6 °F 86.6 °F 70.0 °F 66% 29.79 in 10.0 mi West 4.6 mph - N/A   Clear
7:55 PM 80.1 °F 83.3 °F 70.3 °F 72% 29.78 in 10.0 mi WSW 4.6 mph - N/A   Clear
8:15 PM 78.3 °F - 70.7 °F 77% 29.79 in 10.0 mi WSW 3.5 mph - N/A   Clear
8:35 PM 78.4 °F - 70.3 °F 76% 29.79 in 10.0 mi WSW 3.5 mph - N/A   Clear
8:55 PM 76.8 °F - 69.8 °F 79% 29.80 in 10.0 mi WSW 3.5 mph - N/A   Clear
9:15 PM 76.6 °F - 70.0 °F 80% 29.80 in 10.0 mi WSW 3.5 mph - N/A   Clear
9:35 PM 75.4 °F - 70.0 °F 83% 29.81 in 10.0 mi WSW 3.5 mph - N/A   Clear
9:55 PM 74.7 °F - 69.8 °F 85% 29.82 in 10.0 mi West 3.5 mph - N/A   Clear
10:15 PM 74.5 °F - 69.8 °F 85% 29.82 in 10.0 mi Calm Calm - N/A   Clear
10:35 PM 75.2 °F - 69.8 °F 83% 29.81 in 7.0 mi West 3.5 mph - N/A   Clear
11:15 PM 74.1 °F - 68.9 °F 84% 29.80 in 10.0 mi SW 4.6 mph - N/A   Clear
11:55 PM 72.5 °F - 68.7 °F 88% 29.80 in 10.0 mi Calm Calm - N/A   Clear